Total_Precipitation_Accumulation
1.83 2.31 2.93 3.59 4.42 5.54 6.22 6.39 6.22 5.58 5.10 4.69 4.45 4.19 3.97 3.67 3.15 2.77 2.55 2.44 2.35 2.37 2.69 2.48 2.56 2.41 2.46 2.56 2.64 2.87 2.95 2.73 2.90 3.25 3.09 2.75 2.48 2.45 2.38 2.31 2.41 2.41 2.51
1.73 2.36 3.06 3.84 4.55 5.10 5.46 5.58 5.27 4.57 4.12 3.90 3.88 3.61 3.42 3.10 2.88 2.63 2.68 2.32 2.20 2.28 2.23 2.50 2.37 2.32 2.57 2.54 2.64 2.88 2.83 2.52 2.69 3.20 3.47 3.25 3.21 2.66 2.00 2.19 2.32 2.36 2.61
1.91 2.70 3.46 4.22 4.54 4.58 4.37 4.09 3.96 3.64 3.59 3.57 3.41 3.19 3.15 2.90 2.73 2.53 2.50 2.17 1.92 1.92 2.05 2.13 2.12 2.31 2.29 2.53 2.67 2.75 2.93 2.88 2.63 2.63 3.15 3.21 3.22 2.93 2.29 1.95 2.06 2.37 2.70
2.07 2.75 3.28 3.52 3.65 3.59 3.32 3.17 3.15 3.14 3.13 3.05 2.94 2.65 2.55 2.56 2.41 2.33 2.39 2.28 1.98 1.90 1.95 2.01 2.19 2.30 2.20 2.56 2.29 2.45 2.83 2.99 2.70 2.67 2.59 2.65 2.88 2.96 2.79 2.36 2.03 2.20 2.36
1.71 1.90 2.09 2.21 2.31 2.34 2.50 2.61 2.81 2.98 2.90 2.84 2.87 2.83 2.55 2.51 2.47 2.47 2.60 2.51 2.25 2.02 1.83 2.05 2.37 2.47 2.32 2.38 2.47 2.80 2.75 2.73 2.70 2.65 2.56 2.67 2.76 2.57 2.65 2.65 2.44 2.24 1.88
1.15 1.26 1.33 1.44 1.64 1.68 1.92 2.16 2.31 2.46 2.65 2.70 2.57 2.52 2.49 2.58 2.64 2.61 2.46 2.29 2.17 2.06 1.95 2.12 2.42 2.47 2.53 2.51 2.46 2.56 2.62 2.73 2.81 2.69 2.49 2.56 2.68 2.68 2.80 2.55 2.48 2.49 2.11
0.98 1.26 1.29 1.38 1.54 1.47 1.61 1.87 1.91 1.93 2.07 2.10 2.10 2.18 2.36 2.43 2.29 2.19 2.16 2.04 1.82 1.86 1.99 2.10 2.36 2.39 2.43 2.34 2.55 2.58 2.56 2.68 2.67 2.60 2.56 2.45 2.35 2.49 2.67 2.68 2.49 2.46 2.31
0.87 1.08 0.97 1.07 1.22 1.22 1.34 1.50 1.59 1.65 1.71 1.81 1.95 1.93 2.05 2.05 1.96 2.08 1.96 1.86 1.62 1.55 1.69 1.85 1.93 2.03 2.07 2.04 2.58 2.49 2.55 2.67 2.51 2.32 2.72 2.59 2.26 2.41 2.54 2.80 3.07 2.88 2.71
0.69 0.81 0.77 0.70 0.86 1.03 1.17 1.27 1.34 1.47 1.49 1.64 1.75 1.72 1.79 1.89 1.96 1.98 1.90 1.72 1.75 1.61 1.68 1.73 1.96 2.10 2.18 2.26 2.57 2.52 2.50 2.69 2.49 2.44 2.61 2.52 2.42 2.40 2.34 2.74 3.16 3.39 3.16
0.67 0.71 0.71 0.64 0.71 0.88 1.16 1.24 1.25 1.40 1.44 1.55 1.57 1.43 1.61 1.74 1.92 1.90 1.82 1.76 1.77 1.74 1.86 1.94 2.08 2.21 2.21 2.26 2.49 2.44 2.55 2.68 2.55 2.55 2.60 2.51 2.43 2.55 2.47 2.60 2.91 3.19 3.39
0.75 0.69 0.68 0.65 0.61 0.74 0.98 1.07 1.21 1.33 1.40 1.49 1.60 1.67 1.68 1.61 1.76 1.80 1.79 1.82 1.83 1.82 1.90 2.01 2.17 2.22 2.30 2.43 2.58 2.38 2.50 2.63 2.78 2.67 2.70 2.74 2.85 2.83 2.74 2.82 2.90 3.09 3.37
0.58 0.66 0.75 0.77 0.67 0.67 0.80 0.97 1.16 1.32 1.39 1.51 1.67 1.76 1.93 1.87 1.80 1.78 1.84 1.92 2.03 2.12 2.07 2.14 2.22 2.11 2.18 2.44 2.52 2.47 2.54 2.59 2.62 2.79 3.08 2.99 3.07 3.02 2.85 2.98 2.92 3.02 3.38
0.66 0.76 0.89 0.83 0.86 0.84 0.86 0.99 1.18 1.41 1.58 1.69 1.80 1.93 2.02 1.92 1.81 1.92 2.02 2.04 2.20 2.37 2.43 2.44 2.31 2.24 2.25 2.35 2.45 2.56 2.59 2.60 2.66 2.80 2.88 2.94 3.20 3.07 2.98 2.89 2.85 2.97 3.18
0.81 0.81 0.85 0.84 0.94 1.12 1.18 1.26 1.53 1.59 1.62 1.84 2.03 2.11 2.14 2.04 1.98 2.08 2.18 2.20 2.28 2.44 2.58 2.56 2.51 2.44 2.33 2.20 2.19 2.28 2.38 2.53 2.68 2.72 2.65 2.75 3.00 3.09 3.10 2.88 2.89 3.06 3.19
0.77 0.72 0.75 0.85 0.96 1.10 1.24 1.39 1.45 1.64 1.77 2.03 2.16 2.17 2.27 2.28 2.30 2.42 2.42 2.34 2.36 2.39 2.56 2.63 2.69 2.63 2.43 2.16 2.25 2.42 2.41 2.59 2.59 2.49 2.39 2.39 2.66 2.90 3.00 2.72 2.78 2.98 2.99
0.81 0.88 0.92 0.97 1.08 1.11 1.20 1.31 1.42 1.65 1.91 2.17 2.44 2.49 2.54 2.53 2.60 2.73 2.79 2.70 2.68 2.80 2.81 2.69 2.65 2.58 2.19 2.36 2.44 2.45 2.47 2.61 2.60 2.51 2.40 2.29 2.26 2.29 2.47 2.58 2.71 2.88 2.87
0.95 1.03 1.15 1.14 1.14 1.19 1.25 1.35 1.47 1.70 1.96 2.20 2.46 2.65 2.74 2.79 2.86 2.95 2.95 2.90 3.00 3.18 3.15 2.99 2.81 2.64 2.58 2.56 2.36 2.32 2.19 2.24 2.33 2.43 2.41 2.10 1.91 2.03 1.96 2.19 2.36 2.45 2.54
0.96 1.05 1.22 1.27 1.24 1.25 1.31 1.49 1.70 2.00 2.29 2.45 2.56 2.69 2.78 2.84 2.89 2.95 2.83 2.88 3.05 3.13 3.14 3.02 2.88 2.73 2.64 2.56 2.27 2.24 2.02 2.03 2.07 2.16 2.21 2.15 1.99 1.98 2.11 2.12 2.03 1.96 2.02
1.08 1.18 1.30 1.40 1.47 1.49 1.55 1.64 1.83 2.09 2.37 2.57 2.59 2.59 2.69 2.79 2.84 2.87 2.89 2.94 2.99 2.89 2.78 2.69 2.68 2.64 2.69 2.70 2.38 2.20 1.95 1.99 1.98 1.99 2.01 2.04 1.94 2.13 2.12 2.04 1.98 1.97 1.97
1.18 1.27 1.29 1.33 1.47 1.58 1.61 1.72 1.92 2.15 2.37 2.55 2.59 2.58 2.71 2.83 2.86 2.94 2.99 2.94 2.86 2.78 2.69 2.55 2.54 2.53 2.51 2.59 2.23 2.08 1.90 1.93 1.92 1.97 1.99 2.04 1.96 2.01 1.92 1.83 1.92 1.89 1.91
1.32 1.35 1.39 1.37 1.40 1.52 1.64 1.78 1.90 2.05 2.22 2.41 2.55 2.70 2.89 2.97 2.99 3.03 2.94 2.87 2.78 2.80 2.76 2.62 2.50 2.46 2.40 2.43 2.16 1.99 1.77 1.89 2.11 2.09 2.01 2.03 2.06 1.80 1.75 1.70 1.71 1.77 1.84
1.33 1.38 1.42 1.50 1.56 1.65 1.71 1.83 1.82 1.94 2.16 2.23 2.37 2.47 2.65 2.77 2.79 2.88 2.84 2.89 2.83 2.70 2.59 2.47 2.33 2.26 2.27 2.18 2.08 1.91 1.75 1.83 1.99 2.08 2.12 2.16 2.08 1.75 1.62 1.50 1.49 1.58 1.57
1.59 1.56 1.47 1.52 1.59 1.67 1.78 1.89 1.91 1.88 1.94 2.05 2.22 2.40 2.52 2.73 2.86 2.89 2.87 2.78 2.68 2.50 2.32 2.21 2.11 2.13 2.19 2.17 2.00 1.79 1.71 1.77 1.81 1.91 2.07 1.96 1.86 1.67 1.45 1.40 1.40 1.43 1.37
1.43 1.55 1.51 1.55 1.74 1.66 1.69 1.81 1.90 1.89 1.95 2.04 2.11 2.25 2.36 2.48 2.70 2.79 2.73 2.59 2.35 2.20 2.15 2.10 2.10 2.16 2.21 2.11 1.92 1.70 1.57 1.64 1.72 1.78 1.86 1.85 1.82 1.74 1.60 1.49 1.40 1.32 1.38
1.30 1.32 1.36 1.45 1.54 1.55 1.56 1.64 1.75 1.82 1.82 1.84 1.87 1.91 2.10 2.27 2.42 2.45 2.37 2.22 2.10 2.17 2.20 2.14 2.11 2.03 1.96 2.02 1.96 1.74 1.65 1.65 1.71 1.71 1.72 1.78 1.89 1.92 1.87 1.78 1.68 1.63 1.65
1.25 1.29 1.26 1.29 1.36 1.44 1.54 1.63 1.81 1.95 1.97 1.92 1.88 1.83 1.80 1.91 2.13 2.34 2.39 2.26 2.04 2.05 2.00 1.93 1.89 1.84 1.76 1.78 1.75 1.67 1.63 1.70 1.78 1.68 1.74 1.91 1.97 1.99 1.97 1.95 1.83 1.73 1.64